Regional Weather Roundup
Issued by NWS

Home | Current Version | Previous Version | Graphics & Text | Print | Product List | Glossary On
Versions: 1 2 3 4 5 6 7 8 9 10 11 12 13 14 15 16 17 18 19 20 21 22 23 24 25 26 27
000
ASUS45 KTFX 162010
RWRMT
MONTANA REGIONAL WEATHER ROUNDUP
NATIONAL WEATHER SERVICE GREAT FALLS MT
100 PM MST TUE JAN 16 2018

NOTE: "FAIR" INDICATES FEW OR NO CLOUDS BELOW 12000 FEET WITH NO
SIGNIFICANT WEATHER AND/OR OBSTRUCTIONS TO VISIBILITY.

MTZ001>007-043-162100-
WEST OF THE DIVIDE

CITY           SKY/WX    TMP DP  RH WIND       PRES   REMARKS
KALISPELL      CLOUDY    27  24  89 SE3       30.29R
MISSOULA       FAIR      33  24  69 W6        30.28R WCI  28
BUTTE          FAIR      23  16  74 CALM      30.19F
MULLAN PASS    SNOW      30  30 100 VRB5      30.19S VSB 1/4
ANACONDA         N/A     36  19  51 SE7       30.18F WCI  30
DEER LODGE       N/A     25  19  80 NE6       30.24S WCI  18
EUREKA           N/A     32  27  80 MISG      30.26F
HAMILTON         N/A     32  30  93 N5        30.24S
RONAN            N/A     32  28  86 CALM      30.30S
$$

MTZ008-052>055-162100-
SOUTHWEST MONTANA

CITY           SKY/WX    TMP DP  RH WIND       PRES   REMARKS
BOZEMAN        FAIR      20  13  74 CALM      30.23F
DILLON         FAIR      31  16  54 S8        30.22F WCI  23
ENNIS          SUNNY     36  19  51 S15G22    30.24F WCI  26
W YELLOWSTONE  FLURRIES  14  10  85 CALM      30.31F
THREE FORKS      N/A     26  19  74 CALM      30.20F
$$

MTZ009-010-012-014-046-048-049-054-162100-
EAST SLOPES AND CENTRAL MONTANA

CITY           SKY/WX    TMP DP  RH WIND       PRES   REMARKS
CUT BANK       FAIR      16  13  88 CALM      30.02F
GREAT FALLS    FAIR      39  22  50 SW26      30.03F WCI  28
MALMSTROM AFB  FAIR      40  25  56 SW12      30.06F
HELENA         FAIR      16  15  96 CALM      30.25F FOG
AUGUSTA        FAIR      34  25  71 S14       30.05F WCI  24
BOWMANS CRNR   FAIR      30  20  68 S32       30.05F WCI  14
CHOTEAU          N/A     39  25  56 SW13      30.05F WCI  32
FAIRFIELD      FAIR      37  23  58 S20G30    30.03F WCI  26
POWER          FAIR      31  22  71 S7        30.04F WCI  24
RAYNESFORD     FAIR      51  16  25 SW6       30.05F
ULM            FAIR      38  27  62 SW10      30.08F WCI  32
WHITE SULPHUR    N/A      9   5  85 CALM      30.19F
$$

MTZ011-013-016-021-045-047-050-051-162100-
NORTH CENTRAL MONTANA

CITY           SKY/WX    TMP DP  RH WIND       PRES   REMARKS
HAVRE          FAIR      -8 -14  74 CALM      30.15F
LEWISTOWN      FAIR      36  13  38 NE3       30.07F
N BAR RANCH    FAIR      43   1  17 VRB7      30.10F
CHINOOK          N/A     -9 -17  70 CALM      30.19F
DENTON         FAIR      28  16  59 MISG      30.04F
GRASS RANGE    FAIR      42   7  23 CALM      30.03F
STANFORD       FAIR      41  19  40 CALM      30.05F
WINIFRED       FAIR      22   2  43 E6        30.06F WCI  14
$$

MTZ017>020-022>027-061-062-162100-
NORTHEAST MONTANA

CITY           SKY/WX    TMP DP  RH WIND       PRES   REMARKS
GLASGOW        FAIR       6  -2  69 SE16      30.20F WCI -12
GLENDIVE       FAIR       7  -3  64 SW15      30.29F WCI -10
JORDAN           N/A     14   6  70 S7        30.19F WCI   4
MALTA          SUNNY     -6 -13  71 SW3       30.21F
SIDNEY         FAIR       6  -5  60 S15       30.30F WCI -12
WOLF POINT     FAIR       0 -10  63 E8        30.29F WCI -14
PLENTYWOOD       N/A      1  -8  66 SE9       30.25F WCI -14
POPLAR           N/A      5  -9  51 CALM      30.30F
$$

MTZ028>42-056>058-162100-
SOUTHCENTRAL AND SOUTHEAST MONTANA

CITY           SKY/WX    TMP DP  RH WIND       PRES   REMARKS
BAKER          FAIR      12   0  58 SE13      30.28F WCI  -3
BILLINGS       FAIR      27  12  53 SW17      30.17F WCI  14
LIVINGSTON     FAIR      25  16  68 NW22      30.16F WCI  10
MILES CITY     FAIR      -2  -7  79 E3        30.28F
BIG TIMBER     SUNNY     18  16  93 E6        30.19F WCI   9
FORSYTH          N/A     -6 -11  77 CALM      30.26F
HARLOWTON      FAIR      17  15  93 SE3       30.14F
LAUREL           N/A     32  12  43 SW15      30.19F WCI  22
$$

REGIONAL REPORTS...DAKOTAS

CITY           SKY/WX    TMP DP  RH WIND       PRES   REMARKS
WILLISTON      FAIR       6  -8  52 SW7       30.32F WCI  -6
MINOT          FAIR      12  -6  44 S16       30.35F WCI  -5
DICKINSON      FAIR      14  -4  44 S14       30.29F WCI  -1
BEACH          FAIR      12  -4  48 S14       30.30F WCI  -3
CROSBY         FAIR       9  -4  56 SW20      30.28F WCI -11
TIOGA          FAIR       9  -6  52 S6        30.31S WCI  -1
WATFORD CITY   FAIR      10  -4  52 CALM      30.30F
BISMARCK       FAIR       6  -9  50 S8        30.50F WCI  -7
GRAND FORKS    PTSUNNY    2  -6  69 S14       30.56F WCI -16
FARGO          PTSUNNY    1  -8  66 S12       30.64F WCI -16
RAPID CITY     FAIR      24   6  46 S15       30.35F WCI  11
$$

REGIONAL REPORTS...WYOMING/IDAHO/WASHINGTON

CITY           SKY/WX    TMP DP  RH WIND       PRES   REMARKS
GILLETTE         N/A    N/A N/A N/A MISG      30.23F
SHERIDAN       FAIR      12   2  64 CALM      30.18F
BUFFALO WY     FAIR      33  10  38 SE8       30.16F WCI  26
CODY           FAIR      28  14  55 N5        30.20F
YELLOWSTONE LA   N/A      9   2  73 CALM      30.31F
IDAHO FALLS    FAIR      35  25  66 N7        30.32F WCI  29
SALMON         FAIR      29  23  78 N3        30.35F
BOISE          CLOUDY    38  34  85 SE13      30.33F WCI  30
SPOKANE        CLOUDY    35  35 100 S7        30.25R FOG     WCI  29
$$

REGIONAL REPORTS...ALBERTA

CITY           SKY/WX    TMP DP  RH WIND       PRES   REMARKS
CALGARY        MOSUNNY   41  27  56 CALM      29.86F
CARDSTON         N/A     52  27  37 MISG        N/A
EDMONTON       SUNNY     21  10  63 SW2       29.85F
FORT MCMURRAY  SUNNY     12   5  73 E5        29.83F
HIGH LEVEL     MOSUNNY   14  10  85 SE7       29.76F WCI   4
LETHBRIDGE     MOSUNNY   39  28  65 SW16      29.95F WCI  30
LLOYDMINSTER   MOSUNNY   14   5  67 S10       29.89F WCI   1
MEDICINE HAT   MOSUNNY   32  21  64 SW17      29.96F WCI  21
MILK RIVER       N/A     21  14  73 SE14        N/A  WCI   8
ONEFOUR          N/A     -4  -8  84 E17         N/A  WCI -26
PEACE RIVER    FLURRIES   9   5  85 SW7       29.81F WCI  -3
PINCHER CREEK  SUNNY     41  27  56 W17G24    30.00S
WATERTON GATE    N/A     46  25  42 SW14G25     N/A
$$

REGIONAL REPORTS...SASKATCHEWAN

CITY           SKY/WX    TMP DP  RH WIND       PRES   REMARKS
CORONACH         N/A      9   0  66 SE12        N/A  WCI  -6
CYPRESS HILLS    N/A     27   7  43 S10         N/A  WCI  17
ESTEVAN        MOSUNNY   10  -2  56 SW14G20   30.28F WCI  -5
MOOSE JAW        N/A     27   5  39 S10         N/A  WCI  17
PRINCE ALBERT  SUNNY     10  -4  52 SW6       30.06F WCI   1
REGINA         MOSUNNY   10   0  61 SE17      30.15F WCI  -7
ROCKGLEN         N/A     18   3  53 S18         N/A  WCI   2
SASKATOON      SUNNY     18   3  53 S15       30.04F WCI   3
SWIFT CURRENT  SUNNY     19   3  49 SW18      30.02F WCI   4
VAL MARIE        N/A      1  -8  66 W3          N/A
$$




USA.gov is the U.S. government's official web portal to all federal, state and local government web resources and services.